Home   Weather   Saint-Pierre   Past weeks

Flag for Saint Pierre and Miquelon Past Weather in Saint-Pierre, Saint Pierre and Miquelon — Yesterday and Last 2 Weeks

Now
36 °F

Partly sunny.


Feels Like: 23 °F
Forecast: 35 / 38 °F
Wind: 26 mph from Northeast

Location: Saint-Pierre

Current Time: Dec 4, 2016 at 9:31:11 am

Latest Report: Dec 4, 2016 at 9:00 am


Visibility: N/A

Pressure: 29.56 "Hg

Humidity: 70%

Dew Point: 27 °F

Location of Saint-PierreLocation

Past Weather in Saint-Pierre — Graph

°F

Saint-Pierre Temperature Yesterday

Maximum temperature yesterday: 39 °F (at 11:00 am)
Minimum temperature yesterday: 37 °F (at 6:00 am)
Average temperature yesterday: 38 °F

High & Low Weather Summary for the Past Weeks

 TemperatureHumidityPressure
High54 °F (Nov 19, 9:00 am)100% (Nov 19, 8:00 am)30.24 "Hg (Nov 19, 8:00 am)
Low32 °F (Nov 30, 8:00 pm)60% (Nov 25, 2:00 pm)29.27 "Hg (Dec 3, 6:00 am)
Average42 °F84%29.79 "Hg
* Reported Nov 19 8:00 am — Dec 4 8:00 am, Saint-Pierre, Weather by CustomWeather, © 2016

Note: Actual official high and low records may vary slightly from our data, if they occured in-between our weather recording intervals... More about our weather records

Advertising

Saint-Pierre Weather History for the Previous 24 Hours

Scroll right to see more
 ConditionsComfort  
Time TempWeatherWind HumidityBarometerVisibility
8:00 am
Sun, Dec 4
36 °FPassing clouds.25 mph70%29.56 "HgN/A
7:00 am36 °FPassing clouds.28 mph70%29.53 "HgN/A
6:00 am36 °FPassing clouds.28 mph70%29.50 "HgN/A
12:00 am37 °FPassing clouds.31 mph75%29.45 "HgN/A
10:00 pm
Sat, Dec 3
37 °FPassing clouds.31 mph81%29.42 "HgN/A
9:00 pm37 °FPassing clouds.32 mph81%29.42 "HgN/A
8:00 pm37 °FPassing clouds.35 mph81%29.39 "HgN/A
7:00 pm37 °FPassing clouds.35 mph87%29.36 "HgN/A
6:00 pm37 °FPassing clouds.37 mph87%29.36 "HgN/A
5:00 pm37 °FPassing clouds.35 mph87%29.33 "HgN/A
4:00 pm37 °FDrizzle. Partly sunny.36 mph93%29.33 "HgN/A
3:00 pm39 °FDrizzle. Broken clouds.32 mph87%29.30 "Hg5 mi
2:00 pm39 °FDrizzle. Broken clouds.29 mph87%29.30 "Hg5 mi
1:00 pm39 °FDrizzle. Broken clouds.30 mph87%29.30 "Hg5 mi
12:00 pm39 °FDrizzle. Broken clouds.26 mph87%29.30 "Hg5 mi
11:00 am39 °FDrizzle. Broken clouds.29 mph87%29.30 "Hg5 mi
10:00 am37 °FDrizzle. Broken clouds.26 mph93%29.30 "Hg5 mi
9:00 am37 °FDrizzle. Partly sunny.23 mph93%29.30 "Hg5 mi
Weather by CustomWeather, © 2016

See weather overviewHow to use our weather pages